sat.trackr.live / text

‹ back to catalog

PTD-4 (LISA-T)

NORAD 60565 · 2024-149DB

PAYLOAD ACTIVE UNKNOWN

§ Identity

Operator
Country
US
Launch date
2024-08-16
Launch site
AFWTR
Launch vehicle
Mass (kg)
RCS (m²)

External: N2YO · Heavens-Above · Gunter

§ Orbital elements

Epoch: 2026-05-25T04:29:58.945056Z

Period
94.68 min
Inclination
97.6960°
Eccentricity
0.0004415
Mean motion
15.20949288 rev/d
Perigee alt
499.9 km
Apogee alt
506.0 km
Semi-major
6,881.1 km
B*
9.8048e-4
RAAN
233.5558°
Arg perigee
124.4413°
Mean anomaly
235.7240°
Rev number
9,732

§ Raw data

PTD-4 (LISA-T)1 60565U 24149DB  26145.18748779  .00021689  00000+0  98048-3 0  99982 60565  97.6960 233.5558 0004415 124.4413 235.7240 15.20949288 97327

JSON: /api/v1/satellites/60565 · /tle

For live sub-satellite position, see the globe view (requires WebGL).

§ Visibility from observer

Set your observer location to see the next 7 days of passes ≥ 10°. The values pass through the URL so the page stays shareable.

No JS? Fill the form by hand. The geolocation button needs JavaScript.

§ Radio — SatNOGS DB

ModeDescriptionDownlinkUplink
FSK Mode U - FSK9k6 401.205 MHz

1 transmitter · refreshed weekly from db.satnogs.org